Regional Weather Roundup
Issued by NWS State College, PA

Home | Current Version | Previous Version | Text Only | Print | Product List | Glossary On
Versions: 1 2 3 4 5 6 7 8 9 10 11 12 13 14 15 16 17 18 19 20 21 22 23 24 25 26 27 28 29 30 31 32 33 34 35 36 37 38 39 40 41 42 43 44 45 46 47 48 49 50
000
ASUS41 KCTP 022203
RWRCTP

REGIONAL WEATHER ROUNDUP
NATIONAL WEATHER SERVICE STATE COLLEGE PA
600 PM EDT SAT MAY 02 2015

Note: "fair" indicates few or no clouds below 12,000 feet with no
significant weather and/or obstructions to visibility.

* = STATION THAT DOES NOT REPORT PRECIPITATION /E.G. RAIN...SNOW...ETC/
    THUNDER OR FOG.

PAZ002>004-007>009-013>016-020>023-029>032-022300-
WESTERN PENNSYLVANIA

CITY           SKY/WX    TMP DP  RH WIND       PRES   REMARKS
ERIE           SUNNY     65  36  34 W5        30.02F
MEADVILLE      MOSUNNY   70  35  27 NW14      30.02S
FRANKLIN*      MOSUNNY   70  36  28 NW7       30.03S
NEW CASTLE     FAIR      72  40  31 N8        30.02S
BEAVER COUNTY  NOT AVBL
BUTLER*        MOSUNNY   70  36  28 NW7       30.03S
PITTSBURGH INT MOSUNNY   71  36  27 NW12      30.01S
PITTSBURGH     PTSUNNY   72  31  22 VRB7      30.00F
INDIANA*       SUNNY     70  34  26 N7G16     30.03R
LATROBE        MOSUNNY   70  37  30 NW9       30.02S
WASHINGTON CO* MOSUNNY   72  39  30 CALM      30.04S
$$

PAZ004>006-010>012-017>019-024>028-033>037-041-042-045-046-049>053-022300-
CENTRAL PENNSYLVANIA

CITY           SKY/WX    TMP DP  RH WIND       PRES   REMARKS
BRADFORD       MOSUNNY   66  32  28 N17G24    30.00R
DUBOIS         MOSUNNY   72  27  18 N10G20    29.98S
CLEARFIELD     MOSUNNY   73  30  20 W7        29.97S
JOHNSTOWN      MOSUNNY   67  31  26 W14G23    30.01S
ALTOONA        MOSUNNY   69  33  26 NW12      29.99S
STATE COLLEGE  PTSUNNY   72  34  25 W8        29.96S
WILLIAMSPORT   SUNNY     74  31  20 CALM      29.91S
SELINSGROVE    MOSUNNY   74  42  31 SE3       29.93S
FT INDIANTOWN  MOSUNNY   74  35  24 N5        29.93S
CAPITAL CITY   PTSUNNY   74  36  25 W7        29.94S
HARRISBURG     MOSUNNY   74  38  27 NW5       29.93S
YORK           PTSUNNY   70  43  37 CALM      29.96R
$$

PAZ038>040-043-044-047-048-054-055-060>062-067>071-022300-
EASTERN PENNSYLVANIA

CITY           SKY/WX    TMP DP  RH WIND       PRES   REMARKS
SCRANTON       MOSUNNY   73  34  23 NW3       29.93S
MOUNT POCONO   MOSUNNY   65  32  29 N3        29.95S
ALLENTOWN      PTSUNNY   74  38  27 N5        29.92S
QUAKERTOWN*    PTCLDY    72  39  30 CALM      29.94S
READING        PTSUNNY   73  36  25 N5        29.92S
LANCASTER      PTSUNNY   72  38  29 CALM      29.94R
COATESVILLE    MOCLDY    72  39  30 NW7       29.95S
POTTSTOWN      CLOUDY    72  39  30 SW5       29.95R
BLUE BELL      MOSUNNY   72  41  33 CALM      29.93S
DOYLESTOWN     MOSUNNY   69  39  33 W3        29.93R
WILLOW GROVE   NOT AVBL
NORTH PHILA    PTSUNNY   75  39  27 N5        29.95R
PHILADELPHIA   MOSUNNY   73  40  30 SW5       29.94R
$$


USA.gov is the U.S. government's official web portal to all federal, state and local government web resources and services.